TimeEDT,TemperatureF,Dew PointF,Humidity,Sea Level PressureIn,VisibilityMPH,Wind Direction,Wind SpeedMPH,Gust SpeedMPH,PrecipitationIn,Events,Conditions,WindDirDegrees,DateUTC
12:53 AM,66.0,63.0,90,30.10,6.0,Calm,Calm,-,N/A,,Partly Cloudy,0,2013-10-05 04:53:00
1:53 AM,66.0,63.0,90,30.10,7.0,Calm,Calm,-,N/A,,Clear,0,2013-10-05 05:53:00
2:53 AM,64.9,62.1,90,30.10,6.0,Calm,Calm,-,N/A,,Clear,0,2013-10-05 06:53:00
3:53 AM,64.9,62.1,90,30.09,6.0,Calm,Calm,-,N/A,,Clear,0,2013-10-05 07:53:00
4:53 AM,64.0,61.0,90,30.10,5.0,Calm,Calm,-,N/A,,Clear,0,2013-10-05 08:53:00
5:53 AM,63.0,60.1,90,30.10,5.0,Calm,Calm,-,N/A,,Clear,0,2013-10-05 09:53:00
6:53 AM,63.0,60.1,90,30.11,7.0,Calm,Calm,-,N/A,,Partly Cloudy,0,2013-10-05 10:53:00
7:53 AM,63.0,61.0,93,30.12,5.0,Calm,Calm,-,N/A,,Partly Cloudy,0,2013-10-05 11:53:00
8:53 AM,66.0,62.1,87,30.11,10.0,Calm,Calm,-,N/A,,Clear,0,2013-10-05 12:53:00
9:53 AM,71.1,63.0,75,30.12,10.0,South,5.8,-,N/A,,Clear,170,2013-10-05 13:53:00
10:53 AM,77.0,64.9,66,30.11,10.0,South,6.9,-,N/A,,Partly Cloudy,190,2013-10-05 14:53:00
11:53 AM,80.1,64.0,58,30.10,10.0,SW,5.8,-,N/A,,Clear,220,2013-10-05 15:53:00
12:53 PM,82.0,64.0,54,30.08,10.0,Variable,4.6,-,N/A,,Mostly Cloudy,0,2013-10-05 16:53:00
1:53 PM,82.9,64.0,53,30.05,10.0,SSW,10.4,-,N/A,,Scattered Clouds,210,2013-10-05 17:53:00
2:53 PM,84.0,64.0,51,30.03,10.0,Variable,5.8,-,N/A,,Scattered Clouds,0,2013-10-05 18:53:00
3:53 PM,82.9,64.0,53,30.01,10.0,South,5.8,-,N/A,,Scattered Clouds,190,2013-10-05 19:53:00
4:53 PM,84.0,64.0,51,29.99,10.0,South,8.1,-,N/A,,Partly Cloudy,170,2013-10-05 20:53:00
5:53 PM,82.9,64.0,53,29.99,10.0,Variable,6.9,-,N/A,,Clear,0,2013-10-05 21:53:00
6:53 PM,81.0,64.0,56,29.99,10.0,South,3.5,-,N/A,,Clear,180,2013-10-05 22:53:00
7:53 PM,75.0,64.9,71,30.01,10.0,Calm,Calm,-,N/A,,Clear,0,2013-10-05 23:53:00
8:53 PM,73.0,64.9,76,30.01,10.0,Calm,Calm,-,N/A,,Clear,0,2013-10-06 00:53:00
9:53 PM,72.0,64.9,78,30.00,10.0,Calm,Calm,-,N/A,,Clear,0,2013-10-06 01:53:00
10:53 PM,69.1,64.9,87,29.99,9.0,Calm,Calm,-,N/A,,Clear,0,2013-10-06 02:53:00
11:53 PM,68.0,64.0,87,29.98,7.0,Calm,Calm,-,N/A,,Clear,0,2013-10-06 03:53:00